Destin, FL

1:06 AM CST on November 21, 2017 (GMT -0600)
Destin-Fort Walton Beach

Weather History for KDTS - April, 2013

Change the Weather History Date:

Tuesday, April 9, 2013

  Actual Average Record
Temperature  
Mean Temperature 70 °F -  
Max Temperature 75 °F 71 °F 78 °F (2006)
Min Temperature 66 °F 57 °F 46 °F (2003)
Cooling Degree Days 6    
Growing Degree Days 20 (Base 50)    
Moisture  
Dew Point 63 °F    
Average Humidity 76    
Maximum Humidity 84    
Minimum Humidity 66    
Precipitation  
Precipitation 0.00 in - - ()
Sea Level Pressure  
Sea Level Pressure 30.08 in    
Wind  
Wind Speed 10 mph (SE)    
Max Wind Speed 16 mph    
Max Gust Speed 21 mph    
Visibility 10 miles    
Events      
Averages and records for this station are not official NWS values.
T = Trace of Precipitation, MM = Missing Value Source: NWS Daily Summary

Daily Weather History Graph

Daily Weather History Graph

Search for Another Location

Airport or City:

Trip Planner

Search our weather history database for the weather conditions in past years. The results will help you decide how hot, cold, wet, or windy it might be!

Date:

Astronomy

Apr. 09, 2013 Rise Set
Actual Time 6:25 AM CDT 7:09 PM CDT
Civil Twilight 6:00 AM CDT 7:34 PM CDT
Nautical Twilight 5:32 AM CDT 8:03 PM CDT
Astronomical Twilight 5:02 AM CDT 8:32 PM CDT
Moon 5:45 AM CDT (4/9) 6:44 PM CDT (4/9)
Length of Visible Light 13h 33m
Length of Day
12h 44m
Waning Crescent, 1% of the Moon is Illuminated
Apr 9
Waning Crescent
Apr 10
New
Apr 18
First Quarter
Apr 25
Full
May 2
Last Quarter

Hourly Weather History & Observations

Time (CDT) Temp. Dew Point Humidity Pressure Visibility Wind Dir Wind Speed Gust Speed Precip Events Conditions
12:53 AM 69.1 °F 62.1 °F 78% 30.06 in 10.0 mi SE 9.2 mph - N/A   Clear
1:53 AM 69.1 °F 62.1 °F 78% 30.04 in 10.0 mi SSE 8.1 mph - N/A   Clear
2:53 AM 69.1 °F 63.0 °F 81% 30.02 in 10.0 mi SSE 6.9 mph - N/A   Clear
3:53 AM 68.0 °F 63.0 °F 84% 30.01 in 10.0 mi SE 5.8 mph - N/A   Clear
4:53 AM 68.0 °F 62.1 °F 81% 30.02 in 10.0 mi ESE 13.8 mph - N/A   Clear
5:53 AM 66.9 °F 62.1 °F 84% 30.03 in 10.0 mi ESE 11.5 mph 19.6 mph N/A   Clear
6:53 AM 68.0 °F 62.1 °F 81% 30.06 in 10.0 mi SE 16.1 mph - N/A   Clear
7:53 AM 69.1 °F 62.1 °F 78% 30.07 in 10.0 mi ESE 12.7 mph - N/A   Clear
8:53 AM 71.1 °F 62.1 °F 73% 30.09 in 10.0 mi ESE 12.7 mph - N/A   Clear
9:53 AM 73.0 °F 61.0 °F 66% 30.11 in 10.0 mi ESE 16.1 mph 20.7 mph N/A   Clear
10:53 AM 73.0 °F 61.0 °F 66% 30.13 in 10.0 mi SE 16.1 mph - N/A   Clear
11:53 AM 75.0 °F 63.0 °F 66% 30.14 in 10.0 mi SE 12.7 mph - N/A   Clear
12:53 PM 73.9 °F 64.0 °F 71% 30.13 in 10.0 mi SE 12.7 mph - N/A   Clear
1:53 PM 73.9 °F 64.0 °F 71% 30.13 in 10.0 mi SE 10.4 mph - N/A   Scattered Clouds
2:53 PM 73.0 °F 64.9 °F 76% 30.12 in 10.0 mi SE 11.5 mph - N/A   Overcast
3:53 PM 73.9 °F 64.0 °F 71% 30.10 in 10.0 mi ESE 13.8 mph - N/A   Overcast
4:53 PM 73.9 °F 64.9 °F 73% 30.08 in 10.0 mi SE 9.2 mph - N/A   Partly Cloudy
5:53 PM 71.1 °F 64.0 °F 78% 30.08 in 10.0 mi SE 12.7 mph - N/A   Clear
6:53 PM 70.0 °F 63.0 °F 78% 30.09 in 10.0 mi SE 6.9 mph - N/A   Clear
7:53 PM 70.0 °F 63.0 °F 78% 30.09 in 10.0 mi SE 9.2 mph - N/A   Clear
8:53 PM 70.0 °F 62.1 °F 76% 30.10 in 10.0 mi SSE 8.1 mph - N/A   Clear
9:53 PM 69.1 °F 62.1 °F 78% 30.10 in 10.0 mi SSE 8.1 mph - N/A   Clear
10:53 PM 69.1 °F 62.1 °F 78% 30.10 in 10.0 mi SE 5.8 mph - N/A   Clear
11:53 PM 68.0 °F 62.1 °F 81% 30.09 in 10.0 mi SSE 3.5 mph - N/A   Clear